When you browse on this site, cookies collect data to enhance your experience and personalize the content and advertising you see.
Visit our Privacy Policy to learn more. By continuing to use the site, you agree to this use of cookies and data.
  • In United Kingdom
  • List of Countries
  • For 7 days
  • Water Temperature
  • Weather Map
  • Weather Widgets
  • user-avatar
    Login

    Hourly Weather Kavala

    Today, 22 August, Thursday

    Time Temperature Precipitation Wind Pressure Humidity
    00:00 +27°C° 0 mm 2 mps 761 mmHg 55%
    01:00 +26°C° 0 mm 2 mps 761 mmHg 55%
    02:00 +26°C° 0 mm 2 mps 761 mmHg 55%
    03:00 +26°C° 0 mm 2 mps 761 mmHg 56%
    04:00 +26°C° 0 mm 2 mps 761 mmHg 56%
    05:00 +25°C° 0 mm 2 mps 761 mmHg 56%
    06:00 +27°C° 0 mm 2 mps 761 mmHg 53%
    07:00 +29°C° 0 mm 2 mps 761 mmHg 49%
    08:00 +30°C° 0 mm 2 mps 761 mmHg 45%
    09:00 +32°C° 0 mm 2 mps 761 mmHg 40%
    10:00 +35°C° 0 mm 2 mps 761 mmHg 35%
    11:00 +37°C° 0 mm 2 mps 761 mmHg 30%
    12:00 +38°C° 0 mm 2 mps 761 mmHg 29%
    13:00 +38°C° 0 mm 2 mps 760 mmHg 28%
    14:00 +39°C° 0 mm 2 mps 760 mmHg 27%
    15:00 +38°C° 0 mm 3 mps 760 mmHg 28%
    16:00 +38°C° 0 mm 3 mps 760 mmHg 29%
    17:00 +38°C° 0 mm 4 mps 759 mmHg 30%
    18:00 +36°C° 0 mm 4 mps 760 mmHg 33%
    19:00 +34°C° 0 mm 4 mps 760 mmHg 37%
    20:00 +32°C° 0 mm 4 mps 760 mmHg 41%
    21:00 +30°C° 0 mm 4 mps 761 mmHg 43%
    22:00 +29°C° 0 mm 3 mps 761 mmHg 44%
    23:00 +28°C° 0 mm 3 mps 761 mmHg 46%

    Tomorrow, 23 August, Friday

    Time Temperature Precipitation Wind Pressure Humidity
    00:00 +28°C° 0 mm 2 mps 761 mmHg 48%
    01:00 +27°C° 0 mm 2 mps 761 mmHg 49%
    02:00 +27°C° 0 mm 2 mps 761 mmHg 50%
    03:00 +26°C° 0 mm 2 mps 761 mmHg 50%
    04:00 +26°C° 0 mm 2 mps 761 mmHg 51%
    05:00 +26°C° 0 mm 2 mps 761 mmHg 51%
    06:00 +27°C° 0 mm 2 mps 761 mmHg 48%
    07:00 +29°C° 0 mm 2 mps 761 mmHg 45%
    08:00 +30°C° 0 mm 2 mps 762 mmHg 43%
    09:00 +32°C° 0 mm 2 mps 762 mmHg 38%
    10:00 +35°C° 0 mm 3 mps 762 mmHg 34%
    11:00 +37°C° 0 mm 3 mps 762 mmHg 29%
    12:00 +37°C° 0 mm 3 mps 761 mmHg 28%
    13:00 +38°C° 0 mm 3 mps 761 mmHg 27%
    14:00 +39°C° 0 mm 3 mps 760 mmHg 25%
    15:00 +38°C° 0 mm 4 mps 760 mmHg 26%
    16:00 +39°C° 0 mm 5 mps 760 mmHg 27%
    17:00 +37°C° 0 mm 5 mps 759 mmHg 28%
    18:00 +35°C° 0 mm 5 mps 759 mmHg 32%
    19:00 +33°C° 0 mm 4 mps 760 mmHg 36%
    20:00 +30°C° 0 mm 4 mps 760 mmHg 40%
    21:00 +30°C° 0 mm 4 mps 760 mmHg 42%
    22:00 +29°C° 0 mm 4 mps 760 mmHg 44%
    23:00 +28°C° 0 mm 3 mps 761 mmHg 46%

    Day after tomorrow, 24 August, Saturday

    Time Temperature Precipitation Wind Pressure Humidity
    00:00 +28°C° 0 mm 3 mps 760 mmHg 48%
    01:00 +28°C° 0 mm 3 mps 760 mmHg 50%
    02:00 +27°C° 0 mm 3 mps 760 mmHg 52%
    03:00 +27°C° 0 mm 3 mps 760 mmHg 54%
    04:00 +26°C° 0 mm 3 mps 760 mmHg 55%
    05:00 +26°C° 0 mm 3 mps 760 mmHg 57%
    06:00 +27°C° 0 mm 3 mps 761 mmHg 52%
    07:00 +29°C° 0 mm 3 mps 761 mmHg 48%
    08:00 +31°C° 0 mm 3 mps 761 mmHg 44%
    09:00 +33°C° 0 mm 4 mps 761 mmHg 40%
    10:00 +35°C° 0 mm 5 mps 761 mmHg 35%
    11:00 +37°C° 0 mm 5 mps 761 mmHg 31%
    12:00 +39°C° 0 mm 5 mps 760 mmHg 30%
    13:00 +39°C° 0 mm 5 mps 760 mmHg 29%
    14:00 +40°C° 0 mm 5 mps 760 mmHg 28%
    15:00 +39°C° 0 mm 5 mps 759 mmHg 29%
    16:00 +38°C° 0 mm 4 mps 759 mmHg 30%
    17:00 +38°C° 0 mm 4 mps 759 mmHg 31%
    18:00 +36°C° 0 mm 4 mps 759 mmHg 35%
    19:00 +34°C° 0 mm 4 mps 759 mmHg 40%
    20:00 +32°C° 0 mm 4 mps 759 mmHg 44%
    21:00 +30°C° 0 mm 4 mps 760 mmHg 47%
    22:00 +29°C° 0 mm 4 mps 760 mmHg 50%
    23:00 +28°C° 0 mm 4 mps 760 mmHg 52%

    25 August, Sunday

    Time Temperature Precipitation Wind Pressure Humidity
    00:00 +27°C° 0 mm 3 mps 760 mmHg 54%
    01:00 +27°C° 0 mm 3 mps 760 mmHg 56%
    02:00 +26°C° 0 mm 3 mps 760 mmHg 58%
    03:00 +26°C° 0 mm 3 mps 760 mmHg 59%
    04:00 +26°C° 0 mm 3 mps 760 mmHg 59%
    05:00 +25°C° 0 mm 3 mps 760 mmHg 60%
    06:00 +27°C° 0 mm 3 mps 760 mmHg 55%
    07:00 +28°C° 0 mm 2 mps 760 mmHg 50%
    08:00 +30°C° 0 mm 2 mps 760 mmHg 45%
    09:00 +32°C° 0 mm 2 mps 760 mmHg 39%
    10:00 +34°C° 0 mm 2 mps 760 mmHg 33%
    11:00 +36°C° 0 mm 2 mps 760 mmHg 28%
    12:00 +37°C° 0 mm 2 mps 759 mmHg 27%
    13:00 +37°C° 0 mm 2 mps 759 mmHg 26%
    14:00 +38°C° 0 mm 2 mps 758 mmHg 25%
    15:00 +38°C° 0 mm 2 mps 758 mmHg 26%
    16:00 +38°C° 0 mm 2 mps 758 mmHg 26%
    17:00 +38°C° 0 mm 3 mps 757 mmHg 27%
    18:00 +36°C° 0 mm 2 mps 757 mmHg 31%
    19:00 +34°C° 0 mm 2 mps 758 mmHg 35%
    20:00 +31°C° 0 mm 2 mps 758 mmHg 39%
    21:00 +30°C° 0 mm 2 mps 758 mmHg 41%
    22:00 +29°C° 0 mm 2 mps 759 mmHg 43%
    23:00 +29°C° 0 mm 2 mps 759 mmHg 45%

    26 August, Monday

    Time Temperature Precipitation Wind Pressure Humidity
    00:00 +28°C° 0 mm 2 mps 759 mmHg 47%
    01:00 +27°C° 0 mm 2 mps 759 mmHg 49%
    02:00 +27°C° 0 mm 2 mps 759 mmHg 50%
    03:00 +26°C° 0 mm 2 mps 759 mmHg 50%
    04:00 +26°C° 0 mm 2 mps 759 mmHg 50%
    05:00 +26°C° 0 mm 2 mps 759 mmHg 49%
    06:00 +27°C° 0 mm 2 mps 759 mmHg 46%
    07:00 +29°C° 0 mm 2 mps 759 mmHg 42%
    08:00 +31°C° 0 mm 2 mps 760 mmHg 38%
    09:00 +34°C° 0 mm 3 mps 760 mmHg 34%
    10:00 +35°C° 0 mm 3 mps 760 mmHg 31%
    11:00 +37°C° 0 mm 4 mps 760 mmHg 27%
    12:00 +37°C° 0 mm 4 mps 760 mmHg 26%
    13:00 +38°C° 0 mm 4 mps 759 mmHg 26%
    14:00 +38°C° 0 mm 4 mps 759 mmHg 25%
    15:00 +38°C° 0 mm 4 mps 759 mmHg 26%
    16:00 +38°C° 0 mm 3 mps 758 mmHg 27%
    17:00 +37°C° 0 mm 3 mps 758 mmHg 28%
    18:00 +35°C° 0 mm 2 mps 758 mmHg 33%
    19:00 +32°C° 0 mm 2 mps 759 mmHg 37%
    20:00 +31°C° 0 mm 2 mps 759 mmHg 42%
    21:00 +30°C° 0 mm 2 mps 759 mmHg 44%
    22:00 +29°C° 0 mm 2 mps 760 mmHg 46%
    23:00 +28°C° 0 mm 3 mps 760 mmHg 48%

    27 August, Tuesday

    Time Temperature Precipitation Wind Pressure Humidity
    00:00 +27°C° 0 mm 2 mps 760 mmHg 49%
    01:00 +27°C° 0 mm 2 mps 760 mmHg 50%
    02:00 +26°C° 0 mm 2 mps 760 mmHg 51%
    03:00 +26°C° 0 mm 2 mps 760 mmHg 52%
    04:00 +25°C° 0 mm 2 mps 760 mmHg 53%
    05:00 +25°C° 0 mm 2 mps 760 mmHg 54%
    06:00 +27°C° 0 mm 2 mps 760 mmHg 50%
    07:00 +28°C° 0 mm 2 mps 760 mmHg 46%
    08:00 +30°C° 0 mm 2 mps 760 mmHg 41%
    09:00 +32°C° 0 mm 2 mps 760 mmHg 37%
    10:00 +34°C° 0 mm 3 mps 760 mmHg 33%
    11:00 +36°C° 0 mm 3 mps 760 mmHg 28%
    12:00 +36°C° 0 mm 3 mps 760 mmHg 27%
    13:00 +37°C° 0 mm 3 mps 760 mmHg 26%
    14:00 +37°C° 0 mm 3 mps 759 mmHg 25%
    15:00 +37°C° 0 mm 3 mps 759 mmHg 26%
    16:00 +37°C° 0 mm 3 mps 759 mmHg 26%
    17:00 +36°C° 0 mm 3 mps 758 mmHg 27%
    18:00 +34°C° 0 mm 3 mps 758 mmHg 30%
    19:00 +31°C° 0 mm 2 mps 759 mmHg 34%
    20:00 +30°C° 0 mm 2 mps 759 mmHg 38%
    21:00 +29°C° 0 mm 2 mps 759 mmHg 41%
    22:00 +28°C° 0 mm 2 mps 760 mmHg 45%
    23:00 +27°C° 0 mm 3 mps 760 mmHg 49%
    Show more